Presure
229 282 251 257 209 220 157 208 244 289 342 544 501 465 466 459 491 503 409 426 487 499 519 579 612 596 576
267 252 208 213 220 234 251 267 340 510 500 455 447 423 432 394 469 430 382 362 359 377 436 486 488 515 562
167 187 155 226 238 255 315 381 503 475 436 396 377 382 358 348 335 344 345 352 358 352 352 361 373 442 478
206 224 234 242 295 339 525 480 441 414 379 357 365 352 338 332 323 321 325 331 343 356 361 365 359 358 371
229 240 249 323 485 509 460 421 395 374 352 335 346 348 334 323 323 323 324 323 324 339 349 352 366 370 353
244 311 329 533 486 431 405 386 355 366 334 329 335 326 317 320 319 321 322 321 321 368 369 374 366 369 373
324 392 518 488 425 392 380 364 345 341 329 323 319 316 319 316 313 318 318 326 373 400 390 379 370 369 369
522 507 456 410 389 379 355 331 325 322 324 317 312 316 316 307 314 311 339 403 437 381 377 363 357 363 366
488 427 395 380 383 349 331 319 308 317 320 315 312 312 307 309 312 309 405 446 456 446 358 437 439 464 383
403 384 376 390 359 323 329 314 315 310 314 305 307 306 303 302 305 347 420 387 360 355 355 351 343 338 340
369 365 357 347 324 327 319 319 306 301 304 304 301 305 293 294 312 383 388 374 360 337 335 346 352 350 349
364 355 357 341 313 315 300 300 291 282 291 300 301 304 298 293 319 373 382 350 328 328 332 314 326 307 363
317 312 307 306 303 302 307 298 293 290 285 293 296 300 290 292 323 365 352 353 358 321 296 301 302 389 415
316 317 316 317 318 312 311 304 309 302 277 280 296 298 292 295 323 359 351 326 315 308 301 293 381 390 373
381 267 308 379 372 429 374 313 303 318 299 279 293 298 293 305 331 368 365 334 296 293 353 374 393 436 379
255 250 249 410 407 413 430 442 374 315 265 284 295 296 296 312 373 356 348 284 289 339 380 387 410 397 386
253 376 367 401 394 390 402 426 372 344 268 275 296 296 299 317 369 355 314 285 296 385 389 390 433 391 386
Wind_Speed
119 111 116 114 102 111 82 110 128 138 139 58 57 59 53 56 50 47 57 58 52 51 50 52 59 65 73
107 110 104 109 114 125 132 138 141 63 55 57 52 49 51 48 35 33 47 54 56 52 48 47 49 50 59
86 96 89 122 127 135 140 118 55 52 54 49 54 46 47 45 48 45 47 50 50 52 53 52 51 47 46
103 115 124 130 140 134 47 49 51 51 48 47 48 41 44 44 46 47 50 55 53 51 50 51 52 51 48
119 125 132 134 71 42 43 46 52 43 40 52 42 38 38 41 43 46 48 51 53 51 53 53 51 50 48
130 136 130 45 38 44 44 42 46 41 36 48 38 41 40 42 43 45 47 49 49 47 45 44 46 46 45
131 107 44 35 38 40 39 35 40 38 33 44 36 42 39 43 46 48 49 50 51 47 41 40 41 42 41
50 42 35 36 35 30 32 38 43 41 31 39 38 40 40 43 46 48 56 43 32 34 33 32 33 34 34
38 36 37 38 27 29 34 37 43 45 36 36 35 39 37 43 46 47 42 25 24 22 27 23 25 26 26
40 39 37 29 27 32 30 34 33 42 38 40 37 37 40 40 44 56 32 30 26 24 24 25 28 31 34
42 40 37 34 32 31 27 27 31 36 37 39 39 34 38 42 44 40 29 28 26 23 25 26 26 26 30
43 43 40 37 35 33 33 31 30 34 38 33 36 35 37 37 43 38 33 25 24 25 25 25 28 30 32
48 47 45 43 42 41 38 35 32 30 35 33 34 33 36 36 44 33 30 31 30 23 25 26 28 32 31
55 54 53 51 48 45 44 39 38 31 28 31 31 32 33 33 40 32 31 22 26 26 26 27 33 32 32
50 49 41 43 43 34 41 41 34 35 24 27 29 29 32 35 41 28 27 22 22 26 33 33 33 31 29
46 47 45 32 31 30 26 24 30 27 19 21 26 27 28 32 22 27 23 22 23 28 30 30 30 22 22
49 40 39 32 29 28 25 22 20 20 18 19 23 24 26 32 21 19 19 20 22 26 23 26 21 21 20
Wind_Direction
298 299 298 296 294 301 288 297 298 297 296 297 296 294 291 285 291 286 278 278 282 280 277 272 265 262 258
299 299 298 302 302 303 301 299 299 298 296 299 299 291 289 289 294 290 280 279 277 278 281 280 271 270 260
297 300 294 305 303 302 301 300 297 297 297 297 289 296 292 292 288 289 286 283 279 275 273 273 274 274 268
306 306 306 304 303 301 299 295 296 296 298 291 291 293 291 290 292 290 285 284 285 284 281 278 269 268 271
308 307 305 303 303 299 296 296 295 298 299 291 298 296 289 288 287 286 284 282 283 282 280 278 279 275 263
307 305 306 305 299 295 294 295 295 301 296 293 303 298 298 296 294 294 291 288 286 291 284 278 274 271 267
306 307 307 299 296 293 293 291 290 293 301 292 301 297 300 299 301 301 301 298 293 289 281 272 267 267 264
310 308 306 301 298 288 291 296 298 300 301 294 299 300 303 300 304 305 312 307 304 289 281 273 268 264 260
310 308 304 300 287 289 294 297 300 300 304 300 302 302 304 306 308 309 321 336 340 326 281 300 293 291 263
309 308 307 296 286 296 292 295 296 298 303 303 307 309 306 307 313 322 321 320 308 299 289 280 273 269 266
309 307 303 297 300 298 300 295 296 298 301 304 306 308 303 308 317 326 328 324 314 298 295 291 286 278 270
306 306 300 293 301 297 297 295 294 299 303 306 305 307 303 307 318 324 331 310 300 302 304 291 289 283 282
312 310 307 303 299 296 293 291 292 295 297 302 305 304 303 309 319 321 319 324 322 312 290 292 293 302 300
309 307 304 300 295 292 291 293 290 287 291 302 303 299 302 309 322 314 315 319 315 314 308 300 314 310 299
309 307 311 299 295 299 289 289 292 288 286 297 301 297 304 314 321 320 324 316 310 308 325 323 322 317 309
309 308 307 319 311 308 305 295 281 280 294 302 297 297 306 318 322 316 323 302 311 329 328 329 330 323 315
313 324 319 323 315 311 308 301 275 270 290 304 296 302 312 319 322 323 320 310 327 335 331 339 344 341 336